Simultaneous Nadir Overpasses (SNOs) Predictions

Prediction of SNOs between GOES-14 and AQUA Satellite Orbit:

Table of predicted SNOs for the next 14.0 days since TLE Epoch: 1/7/2023
Index Date Time (GOES-14) GOES-14 Lat,Lon AQUA Lat,Lon Distance(km) Time Diff (sec)
1 01/07/2023 08:27:41 -0.06,-104.53 -0.74,-101.46 349.39 80
2 01/07/2023 20:48:49 0.07,-104.14 -0.44,-106.58 277.01 80
3 01/09/2023 20:38:26 0.06,-104.15 0.23,-103.39 86.41 80
4 01/10/2023 08:56:48 -0.07,-104.55 0.80,-108.50 449.47 80
5 01/11/2023 20:25:22 0.06,-104.16 0.93,-100.21 450.27 80
6 01/12/2023 08:43:44 -0.07,-104.57 0.09,-105.32 85.52 80
7 01/14/2023 08:30:39 -0.06,-104.58 -0.58,-102.13 278.75 80
8 01/14/2023 20:54:28 0.07,-104.19 -0.56,-107.25 347.47 80
9 01/16/2023 20:38:42 0.06,-104.20 0.09,-104.05 16.82 80
10 01/18/2023 20:25:47 0.05,-104.21 0.78,-100.86 380.89 69
11 01/19/2023 08:46:39 -0.05,-104.61 0.22,-105.97 155.09 80
